Regional Weather Roundup
Issued by NWS Newport/Morehead, NC

Current Version | Previous Version | Graphics & Text | Print | Product List | Glossary Off
Versions: 1 2 3 4 5 6 7 8 9 10 11 12 13 14 15 16 17 18 19 20 21 22 23 24 25 26 27 28 29 30 31 32 33 34 35 36 37 38 39 40 41 42 43 44 45 46 47 48 49 50
000 ASUS42 KMHX 261626 RWRMHX WEATHER ROUNDUP FOR EASTERN NORTH CAROLINA NATIONAL WEATHER SERVICE NEWPORT/MOREHEAD CITY NC 1200 PM EDT MON JUN 26 2017 NOTE: "FAIR" INDICATES FEW OR NO CLOUDS BELOW 12,000 FEET WITH NO SIGNIFICANT WEATHER AND/OR OBSTRUCTIONS TO VISIBILITY NCZ015>017-031-032-045>047-102-103-261700- NORTH COAST CITY SKY/WX TMP DP RH WIND PRES REMARKS EDENTON MOSUNNY 83 51 33 CALM 30.11F ELIZABETH CITY MOSUNNY 83 58 42 N6 30.10S KITTY HAWK PTSUNNY 77 61 57 N5 30.09F MANTEO PTSUNNY 79 58 47 E12 30.11S $$ NCZ045>047-081-094-103-104-261700- CENTRAL COAST CITY SKY/WX TMP DP RH WIND PRES REMARKS FRISCO NOT AVBL $$ NCZ095-097-098-100-101-261700- SOUTHERN COAST CITY SKY/WX TMP DP RH WIND PRES REMARKS BEAUFORT CLOUDY 81 67 62 NE9 30.10S CEDAR ISLAND NOT AVBL JACKSONVILLE CLOUDY 80 59 48 NE9 30.10S PINEY ISLAND CLOUDY N/A N/A N/A NE10 30.10R WILMINGTON CLOUDY 81 58 45 NE14 30.11R $$ NCZ011>013-027>030-043-044-078>080-089-090>093-098-261700- COASTAL PLAIN CITY SKY/WX TMP DP RH WIND PRES REMARKS AHOSKIE N/A 79 51 38 N5 30.11F CLINTON MOSUNNY 82 58 43 NE6 30.12F ELIZABETHTOWN NOT AVBL GOLDSBORO CLOUDY 82 54 38 NE7 30.10F GREENVILLE SUNNY 82 54 36 NE7 30.13S HAVELOCK CLOUDY 81 62 52 NE10 30.11S KENANSVILLE MOSUNNY 81 57 44 NE5 30.12F KINSTON PTSUNNY 81 52 36 NE7 30.12F NEW BERN CLOUDY 80 60 50 NE10 30.12S RICHLANDS CLOUDY 80 59 48 N7 30.12S ROCKY MOUNT SUNNY 82 52 35 N7 30.12F WASHINGTON MOSUNNY N/A N/A N/A NE6 30.11F WHITEVILLE CLOUDY 79 56 45 NE5 30.12S $$ AMZ130-135-150-152-154-156-158-170-250-252-270-ANZ085-086-088-633-658-670-261700- MARINE OBSERVATIONS STATION/POSITION TIME TEMP WIND PRES WAVE SWELL AIR SEA DIR/SP/G HT/PER HT/PER (UTC) (F) (DEG/KT/KT) (MB) (FT/S) (FT/S) CHESAPEAKE LIGHT NOT AVBL 64 E VA BEACH 1550 74 73 20/ 8/ 10 1019.3 2/ 8 2/ 8 DUCK 1600 72 72 10/ 6/ 8 1019.0 2 E DUCK NOT AVBL OREGON INLET 1600 75 75 20/ 8/ 10 1019.1 13E OREGON INLT 1548 73 N/A 2/ 8 2/ 8 HATTERAS CG 1600 79 77 40/ 10/ 14 1018.9 DIAMOND BUOY 1550 77 81 30/ 6/ 8 1018.8 2/ 8 2/ 8 CAPE LOOKOUT 1600 78 60/ 7/ 8 1019.0 BEAUFORT LAB 1600 79 77 60/ 5/ 8 1018.6 30 SE NEW RVR IN 1608 78 80 110/ 8/ 12 1019.1 30 SE NEW RVR IN 1613 80 N/A 2/ 8 27 SE WRIGHTSVLE 1608 78 80 40/ 10/ 16 1018.4 5 SE WRIGHTSVLE 1608 77 79 50/ 10/ 14 1019.2 225 S CAPE HAT 1550 81 81 230/ 10/ 12 1019.0 3/ 6 2/ 6 41 SE CHARLESTON 1600 76 60/ 8/ 12 1017.9 $$

USA.gov is the U.S. government's official web portal to all federal, state and local government web resources and services.